Regional Weather Roundup
Issued by NWS Wakefield, VA

Home | Current Version | Previous Version | Graphics & Text | Print | Product List | Glossary On
Versions: 1 2 3 4 5 6 7 8 9 10 11 12 13 14 15 16 17 18 19 20 21 22 23 24 25 26 27 28 29 30 31 32 33 34 35 36 37 38 39 40 41 42 43 44 45 46 47 48 49 50
000
ASUS41 KAKQ 311812
RWRAKQ

REGIONAL WEATHER ROUNDUP
NATIONAL WEATHER SERVICE WAKEFIELD VA
200 PM EDT MON AUG 31 2015

Note: "fair" indicates few or no clouds below 12,000 feet with no
significant weather and/or obstructions to visibility. * = Denotes
station may not report precipitation (e.g., rain,snow,etc.),
thunder or fog.

VAZ042-051-052>054-056-311900-
NORTHERN VIRGINIA

CITY           SKY/WX    TMP DP  RH WIND       PRES   REMARKS
WASH NATIONAL  CLOUDY    84  70  62 S13       30.08F
DULLES         CLOUDY    83  65  54 SW7       30.08F
FORT BELVOIR   CLOUDY    82  69  64 VRB6      30.08F
QUANTICO       CLOUDY    83  67  58 SW8       30.10F
FREDERICKSBRG* PTSUNNY   85  66  52 SW9       30.09F
STAFFORD*      CLOUDY    83  64  52 SW8       30.13F
WARRENTON      CLOUDY    85  69  59 SW5       30.09F
CULPEPER*      PTSUNNY   82  67  60 SW3       30.10F
MANASSAS*      NOT AVBL
LEESBURG*      CLOUDY    84  72  65 S13       30.09F
WINCHESTER     CLOUDY    84  64  51 SE5       30.10F
FRONT ROYAL*   FAIR      82  64  54 CALM      30.10S
LURAY*         FAIR      88  59  37 CALM      30.11F
$$

VAZ048-049-060>072-079>083-311900-
CENTRAL AND SOUTH CENTRAL VIRGINIA

CITY           SKY/WX    TMP DP  RH WIND       PRES   REMARKS
RICHMOND       MOSUNNY   84  68  58 SW9       30.10F
CHESTERFIELD*  FAIR      82  63  51 S8        30.11F
PETERSBURG*    MOSUNNY   80  76  87 SW5       30.11F
HANOVER        MOSUNNY   82  68  62 VRB7      30.11F
TAPPAHANNOCK*  MOSUNNY   83  64  53 S8        30.10F
QUINTON*       FAIR      80  69  69 S7        30.10F
CHARLOTTSVILLE SUNNY     85  63  47 VRB5      30.10F
GORDONSVILLE*  FAIR      85  65  51 SW6       30.09F
ORANGE*        MOSUNNY   86  63  45 CALM      30.11F
LOUISA*        SUNNY     84  66  54 W5        30.09F
BUMPASS*       FAIR      83  67  57 SW3       30.10F
FARMVILLE*     PTSUNNY   83  67  59 S3        30.09F
CREWE*         MOCLDY   N/A N/A N/A S5        30.10F
FORT PICKETT*  MOCLDY    79  70  74 S12       30.11F
CHASE CITY*    CLOUDY    82  71  68 CALM      30.11F
CLARKSVILLE*   CLOUDY    73  68  83 CALM      30.11F
SOUTH HILL*    CLOUDY    73  69  87 S6        30.17F
LAWRENCEVILLE* CLOUDY    72  72 100 CALM      30.12F
EMPORIA*       CLOUDY    73  70  88 SE3       30.12F
$$

VAZ088>098-311900-
SOUTHEAST VIRGINIA

CITY           SKY/WX    TMP DP  RH WIND       PRES   REMARKS
NORFOLK        LGT RAIN  74  69  85 S5        30.09F
VIRGINIA BEACH LGT RAIN  76  71  85 S6        30.08F
NORFOLK NAVAL  LGT RAIN  76  68  76 SW6       30.12S
WEST POINT*    PTSUNNY   84  67  57 S6        30.12F
SALUDA*        CLOUDY    76  72  85 W3        30.11S
NEWPORT NEWS   CLOUDY    79  68  69 SW6       30.11F
LANGLEY AFB    CLOUDY    78  69  73 S8        30.10S
FORT EUSTIS    CLOUDY    77  77 100 W3        30.10S
WILLIAMSBURG*  CLOUDY    81  72  74 SW6       30.12F
HR EXEC AP*      N/A     75  70  83 S3        30.12S
FRANKLIN*      CLOUDY    75  70  84 S5        30.11S
WAKEFIELD      CLOUDY    77  69  76 CALM      30.12F
$$

VAZ020-022-025-037-045-311900-
WEST CENTRAL AND SOUTHWEST VIRGINIA

CITY           SKY/WX    TMP DP  RH WIND       PRES   REMARKS
STAUNTON*      SUNNY     90  56  32 NE6       30.13F
WAYNESBORO*    CLOUDY    84  58  40 CALM      30.13F
HOT SPRINGS VA CLOUDY    72  59  64 CALM      30.25F
LYNCHBURG      PTSUNNY   81  64  56 SE6       30.14F
DANVILLE       PTSUNNY   81  69  67 SE5       30.11F
SOUTH BOSTON*  CLOUDY    78  69  73 SE5       30.11F
MARTINSVILLE   PTSUNNY   84  66  54 SE3       30.15F
ROANOKE        PTSUNNY   84  60  44 VRB6      30.14F
BLACKSBURG     CLOUDY    83  59  43 NE6       30.20F
DUBLIN*        PTSUNNY   81  60  48 N5        30.19S
MARION*        PTSUNNY   80  62  54 NW7       30.23S
HILLSVILLE*    PTSUNNY   75  60  60 NE5       30.19F
RICHLANDS*     CLOUDY    76  13   9 CALM      30.21F
WISE*          MOSUNNY   79  57  47 NE8       30.23F
ABINGDON*      MOSUNNY   80  58  47 E5        30.18F
$$

MDZ021>025-VAZ099-100-311900-
SOUTHERN MARYLAND AND THE DELMARVA PENINSULA

CITY           SKY/WX    TMP DP  RH WIND       PRES   REMARKS
PATUXENT RIVER CLOUDY    81  66  60 SW10      30.09S
BAY BRIDGE APT   N/A     82  63  51 SW6       30.07S
LEONARDTOWN    NOT AVBL
DOVER          CLOUDY    88  68  51 SW9       30.05F
GEORGETOWN     CLOUDY    86  64  47 W8        30.08F
EASTON         SUNNY     84  68  58 W9        30.11F
CAMBRIDGE      CLOUDY    82  68  61 W7        30.08S
SALISBURY      CLOUDY    83  67  58 W8        30.08F
OCEAN CITY     CLOUDY    84  63  49 SW8       30.08F
WALLOPS ISLAND CLOUDY    85  65  51 W9        30.10F
ACCOMACK*      CLOUDY    77  64  65 W8        30.11S
$$

NCZ012>017-030>032-311900-
NORTH CENTRAL AND EASTERN NORTH CAROLINA

CITY           SKY/WX    TMP DP  RH WIND       PRES   REMARKS
ROANOKE RAPIDS CLOUDY    73  70  88 S5        30.11S
RALEIGH        CLOUDY    72  68  87 NE6       30.12F
ELIZABETH CITY LGT RAIN  75  71  87 N3        30.11F
AHOSKIE*       PTSUNNY   73  70  91 SE5       30.11F
EDENTON*       LGT RAIN  73  70  91 NE3       30.11F
CURRITUCK*     CLOUDY    75  70  84 CALM      30.11F
KILL DEVIL HLS LGT RAIN  80  68  66 CALM      30.11F
MANTEO         DRIZZLE   78  69  74 E5        30.12F
CAPE HATTERAS  LGT RAIN  77  74  90 S6        30.13R
TARBORO*       CLOUDY    76  71  84 E8        30.11F
GOLDSBORO      PTSUNNY   78  73  83 E8        30.07F
WASHINGTON     CLOUDY    73  71  94 NE7       30.12F
GREENVILLE     CLOUDY    73  72  94 E9        30.11F
NEW BERN       CLOUDY    75  73  93 SE3       30.12F
WILMINGTON     CLOUDY    79  74  84 NE5       30.07F
$$

VAZ048-311900-
ELSEWHERE

CITY           SKY/WX    TMP DP  RH WIND       PRES   REMARKS
HARRISBURG PA  PTSUNNY   86  68  54 CALM      30.04F
BALTIMORE      CLOUDY    85  66  53 S7        30.05F
ANNAPOLIS      CLOUDY    83  66  56 SW6       30.06F
ANDREWS AFB    CLOUDY    83  63  49 SW12      30.08F
PHILADELPHIA   CLOUDY    89  65  44 W14       30.03F
HENDERSON NC   CLOUDY    71  65  82 CALM      30.12F
GREENSBORO     PTSUNNY   79  68  69 NE7       30.12F
ROCKY MOUNT    CLOUDY    75  71  87 E5        30.11S
$$

VAZ100-311900-
MARINE

STATION/POSITION TIME  TEMP    WIND        PRES    WAVE   SWELL
                       AIR SEA DIR/SP/G            HT/PER HT/PER
                 (UTC) (F)     (DEG/KT/KT) (MB)    (FT/S) (FT/S)
BRANDYWINE LGT   1700   81 76  320/  3/  4 1018.8F
CAPE MAY NJ      1700   83 79  300/  6/ 10 1018.3F
LEWES DE         1700   86 75  270/ 11/ 16 1018.4F
15NM E FENWICK I 1750   78 78  210/ 10/ 12 1018.5F   2/10   2/10
OCEAN-CITY-INLET 1700   83 77  250/ 10/ 11 1018.0F
WACHAPREAGUE VA  1700   80 80  250/  2/  7 1019.6F
GOOSES REEF MD   1800   81 79  250/ 10/ 12 1019.7F
COVE POINT MD    1700   80     310/  3/  5 1019.7F
SOLOMONS ISLAND  1700      80                N/A
BISHOPS HEAD MD  1700   79 79  240/  9/ 10 1018.4F
PINEY POINT MD   1705          260/  6/  8   N/A
POTOMAC MD       1800   79 79  250/  8/ 12 1018.1F   1/ 2
CAMBRIDGE MD     1700   81 80  270/  6/  7 1018.2F
LEWISETTA VA     1700   78 79  250/ 11/ 14 1019.1F
RAPPAHANNOCK LGT 1700          210/ 14/ 15 1020.2F
STINGRAY PT      1700   76 79  240/ 10/ 12 1020.3F   1
YORK RVR RNG VA  1700   77     220/  8/  9 1019.4F
YORKTOWN VA      1700   76 80  230/  7/  9 1019.5F
JAMESTOWN VA     1800   76 81  300/  4/  8   N/A
DOMINION TERM VA 1700   74     190/  9/ 11 1019.4F
KIPTOPEKE VA     1700      79  210/  9/ 11   N/A
CHES BAY BRIDGE  1700   74 79  170/ 12/ 14 1019.2F
CAPE HENRY VA    1700   72     180/  8/ 11   N/A
CHESAPEAKE LGHT  1700   74     240/  9/ 10 1020.9F
WILLOUBY STN VA  1700   74     190/ 11/ 12 1020.3F
CAPE HENRY BUOY  1728      78                N/A     2/10
1ST LANDING BUOY 1800      79              1018.8F   1/ 3
CAPE CHARLES BUO 1726      78                N/A     2/11   2/11
OFFSHORE WE BUOY 1711      78                N/A     3/ 9   3/ 9
64NM E OF VA BCH 1750   78 78  310/  8/ 12 1019.7F   3/ 9   3/ 9
DUCK PIER NC     1700   78 79  350/  9/ 10 1019.4F
44100 DUCK FRF   1724      78                N/A     3/10   2/11
44056 DUCK FRF   1711      79                N/A     3/ 9
OREGON INLET NC  1700   79 80   50/  6/  7 1020.2F
HATTERAS NC      1700   80 80  110/  8/ 11 1020.0S
DIAMOND SHLS NC  1750   80 85  190/ 12/ 19 1020.4F   3/ 9   3/ 9
CAPE LOOKOUT NC  1700   77     150/ 23/ 25 1019.5F
$$


USA.gov is the U.S. government's official web portal to all federal, state and local government web resources and services.